Jordan, MT

4:04 AM MDT on May 26, 2017 (GMT -0600)
Jordan

Weather History for KJDN - February, 2013

Change the Weather History Date:

Monday, February 25, 2013

  Actual Average Record
Temperature  
Mean Temperature 35 °F 26 °F  
Max Temperature 49 °F 38 °F 64 °F (1905)
Min Temperature 21 °F 13 °F -33 °F (2011)
Degree Days  
Heating Degree Days 30 39  
Month to date heating degree days 864 1073  
Since 1 July heating degree days 5355 6003  
Cooling Degree Days 0 0  
Month to date cooling degree days 0 0  
Year to date cooling degree days 0 0  
Moisture  
Dew Point 19 °F    
Average Humidity 51    
Maximum Humidity 75    
Minimum Humidity 26    
Precipitation  
Precipitation 0.00 in 0.01 in 0.65 in (1917)
Month to date precipitation 0.07 0.21  
Year to date precipitation 0.40 0.44  
Snow  
Snow 0.00 in - - ()
Month to date snowfall 0.0  
Since 1 July snowfall 0.0  
Snow Depth 0.00 in    
Sea Level Pressure  
Sea Level Pressure 29.88 in    
Wind  
Wind Speed 5 mph (West)    
Max Wind Speed 15 mph    
Max Gust Speed 18 mph    
T = Trace of Precipitation, MM = Missing Value Source: NWS Daily Summary

Daily Weather History Graph

Daily Weather History Graph

Search for Another Location

Airport or City:

Trip Planner

Search our weather history database for the weather conditions in past years. The results will help you decide how hot, cold, wet, or windy it might be!

Date:

Astronomy

Feb. 25, 2013 Rise Set
Actual Time 6:54 AM MST 5:47 PM MST
Civil Twilight 6:23 AM MST 6:18 PM MST
Nautical Twilight 5:48 AM MST 6:53 PM MST
Astronomical Twilight 5:13 AM MST 7:29 PM MST
Moon 6:08 PM MST (2/25) 6:23 AM MST (2/25)
Length of Visible Light 11h 54m
Length of Day
10h 52m
Full, 100% of the Moon is Illuminated
Feb 25
Full
Feb 25
Full
Mar 4
Last Quarter
Mar 11
New
Mar 19
First Quarter

Hourly Weather History & Observations

Time (MST) Temp. Windchill Dew Point Humidity Pressure Visibility Wind Dir Wind Speed Gust Speed Precip Events Conditions
12:48 AM 25.0 °F 20.7 °F 18.0 °F 75% 30.01 in - West 3.5 mph - N/A   Unknown
1:48 AM 28.9 °F 23.9 °F 17.1 °F 61% 29.99 in - WSW 4.6 mph - N/A   Unknown
2:48 AM 27.0 °F - 16.0 °F 63% 29.98 in - Calm Calm - N/A   Unknown
3:48 AM 25.0 °F 17.1 °F 17.1 °F 72% 29.97 in - West 6.9 mph - N/A   Unknown
4:48 AM 24.1 °F 19.7 °F 16.0 °F 71% 29.96 in - West 3.5 mph - N/A   Unknown
5:48 AM 23.0 °F 17.0 °F 16.0 °F 74% 29.97 in - WNW 4.6 mph - N/A   Unknown
6:48 AM 24.1 °F 19.7 °F 17.1 °F 75% 29.96 in - WNW 3.5 mph - N/A   Unknown
7:48 AM 25.0 °F 16.3 °F 18.0 °F 75% 29.95 in - WNW 8.1 mph - N/A   Unknown
8:48 AM 35.1 °F 28.6 °F 19.9 °F 54% 29.91 in - West 8.1 mph - N/A   Unknown
9:48 AM 39.9 °F 35.1 °F 19.9 °F 45% 29.90 in - West 6.9 mph - N/A   Unknown
10:48 AM 44.1 °F 40.1 °F 18.0 °F 35% 29.87 in - SW 6.9 mph - N/A   Unknown
11:48 AM 46.0 °F 41.9 °F 18.0 °F 33% 29.85 in - SSW 8.1 mph - N/A   Unknown
12:48 PM 48.0 °F - 18.0 °F 30% 29.82 in - South 10.4 mph - N/A   Unknown
1:48 PM 48.0 °F - 16.0 °F 28% 29.81 in - Variable 6.9 mph - N/A   Unknown
2:48 PM 48.9 °F - 17.1 °F 28% 29.79 in - SSW 5.8 mph - N/A   Unknown
3:48 PM 48.9 °F - 17.1 °F 28% 29.79 in - SSW 3.5 mph - N/A   Unknown
4:48 PM 46.9 °F - 18.0 °F 32% 29.80 in - Calm Calm - N/A   Unknown
5:48 PM 37.0 °F 34.5 °F 18.0 °F 46% 29.81 in - NE 3.5 mph - N/A   Unknown
6:48 PM 34.0 °F - 19.0 °F 54% 29.82 in - Calm Calm - N/A   Unknown
7:48 PM 33.1 °F - 21.9 °F 64% 29.83 in - Calm Calm - N/A   Unknown
8:48 PM 34.0 °F 28.0 °F 23.0 °F 64% 29.83 in - West 6.9 mph - N/A   Unknown
9:48 PM 37.0 °F 31.0 °F 24.1 °F 59% 29.83 in - NW 8.1 mph - N/A   Unknown
10:48 PM 37.9 °F 30.0 °F 27.0 °F 65% 29.86 in - WNW 12.7 mph - N/A   Unknown
11:48 PM 36.0 °F 32.1 °F 28.0 °F 73% 29.87 in - West 4.6 mph - N/A   Unknown